EDT,Max TemperatureF,Mean TemperatureF,Min TemperatureF,Max Dew PointF,MeanDew PointF,Min DewpointF,Max Humidity, Mean Humidity, Min Humidity, Max Sea Level PressureIn, Mean Sea Level PressureIn, Min Sea Level PressureIn, Max VisibilityMiles, Mean VisibilityMiles, Min VisibilityMiles, Max Wind SpeedMPH, Mean Wind SpeedMPH, Max Gust SpeedMPH,PrecipitationIn, CloudCover, Events, WindDirDegrees
2013-3-1,33,32,32,30,30,28,93,88,81,29.63,29.58,29.49,10,6,1,13,6,21,0.00,8,,1
2013-3-2,37,34,32,34,31,28,100,89,70,29.61,29.59,29.57,10,9,3,9,5,18,0.00,7,,311
2013-3-3,41,37,33,34,32,28,100,84,65,29.58,29.53,29.47,10,9,3,12,5,17,0.00,8,,299
2013-3-4,35,32,30,34,29,25,100,83,70,29.63,29.49,29.44,10,8,1,17,10,24,0.00,6,,303
2013-3-5,42,38,35,34,33,32,93,84,70,30.10,29.91,29.63,10,10,10,15,9,22,0.00,7,,21
2013-3-6,37,35,33,34,29,25,93,79,70,30.25,30.20,30.11,10,10,2,23,16,31,0.01,7,,46
2013-3-7,37,35,33,27,25,23,75,68,60,30.21,30.13,30.04,10,10,6,24,18,36,0.00,7,,35
2013-3-8,44,37,30,27,24,21,86,63,39,30.17,30.07,30.02,10,9,2,25,19,36,0.00,2,,26
2013-3-9,42,36,30,27,24,21,80,67,45,30.37,30.26,30.17,10,10,10,17,12,29,0.00,1,,34
2013-3-10,35,32,28,30,26,23,93,79,69,30.43,30.37,30.30,10,10,10,10,5,,0.00,5,,117
2013-3-11,41,38,35,39,35,30,93,88,81,30.32,30.23,30.17,10,10,7,14,8,20,0.00,8,,206
2013-3-12,48,44,41,46,42,39,100,91,81,30.18,30.04,29.78,10,9,5,20,10,30,0.45,7,,168
2013-3-13,48,42,32,46,39,25,100,85,61,29.77,29.67,29.63,10,7,0,21,9,30,0.22,7,,289
2013-3-14,41,32,23,30,24,12,100,72,42,29.69,29.65,29.59,10,9,1,14,5,23,0.01,3,,280
2013-3-15,33,25,17,19,11,3,86,56,32,29.75,29.67,29.59,10,10,10,16,8,21,0.00,0,,293
2013-3-16,35,28,21,23,12,7,86,52,30,29.88,29.75,29.60,10,10,3,15,6,24,0.00,1,,313
2013-3-17,30,24,17,10,3,-6,63,42,26,30.29,30.01,29.88,10,10,10,28,7,33,0.00,1,,306
2013-3-18,35,22,8,19,5,-4,92,50,22,30.43,30.35,30.29,10,10,10,18,5,24,0.00,0,,267
2013-3-19,33,30,26,28,24,18,100,85,52,30.29,30.00,29.60,10,3,0,25,12,34,0.00,6,,66
2013-3-20,33,26,19,27,20,16,100,74,56,29.70,29.62,29.57,10,8,0,18,11,24,0.03,5,,275
2013-3-21,35,29,23,28,20,14,93,66,44,29.76,29.69,29.59,10,10,10,14,9,22,0.16,2,,218
2013-3-22,37,30,23,25,16,12,100,55,36,29.62,29.59,29.55,10,10,9,18,6,91,0.38,1,,300
2013-3-23,39,32,24,23,18,14,69,57,42,29.61,29.52,29.44,10,10,10,28,16,36,0.00,2,,274
2013-3-24,44,36,28,25,22,19,80,55,37,29.76,29.69,29.58,10,10,10,18,11,23,0.00,2,,304
2013-3-25,39,32,24,32,28,19,87,74,65,29.75,29.68,29.57,10,10,10,16,5,22,0.00,3,,47
2013-3-26,46,39,32,27,24,21,75,55,37,29.69,29.59,29.52,10,10,10,17,9,25,0.00,3,,351
2013-3-27,41,36,30,37,32,25,93,81,65,29.83,29.73,29.68,10,10,10,13,7,22,0.10,4,,325
2013-3-28,48,42,35,34,31,28,87,66,50,29.94,29.89,29.83,10,10,10,13,7,21,0.01,7,,338
2013-3-29,53,45,37,36,31,28,87,61,41,29.98,29.94,29.91,10,10,10,10,6,18,0.00,5,,299
2013-3-30,48,40,30,34,29,18,81,62,42,30.06,30.00,29.97,10,10,10,13,6,16,0.00,1,,271
2013-3-31,46,36,26,37,24,16,87,61,29,30.11,30.05,29.88,10,10,10,13,5,18,0.00,0,,192